Location: Ferintosh
(52.7647°N, 112.9692°W)
Time: 22:48:03
(UTC+00:00)

A-11 Canister half - Pass Details

Date: 22 May 2024
Orbit: 1524 x 1683 km, 47.3° (Epoch: 19 June)

Event Time Altitude Azimuth Distance (km) Brightness Sun altitude
Rises 02:57:32 0° 182° (S) 4,671 11.3 3.7°
Reaches altitude 10° 03:01:59 10° 164° (SSE) 3,708 10.6 3.1°
Maximum altitude 03:07:18 17° 128° (SE) 3,226 10.1 2.4°
Drops below altitude 10° 03:12:41 10° 93° (E) 3,776 10.5 1.7°
Sets 03:17:15 0° 75° (ENE) 4,795 11.2 1.1°
